Location: Stendal
(52.5994°N, 11.8400°E)
Time: 22:50:35
(UTC+01:00)

Envisat - Visible Passes

Search period start: 12 November 2019 00:00
Search period end: 22 November 2019 00:00
Orbit: 764 x 766 km, 98.1° (Epoch: 12 November)

Date Brightness Start Highest point End Pass type
(mag) Time Alt. Az. Time Alt. Az. Time Alt. Az.
12 Nov 5.3 06:19:29 10° NNE 06:23:52 28° E 06:28:13 10° SSE visible
12 Nov 3.0 17:39:36 10° SSE 17:44:37 65° ENE 17:49:41 10° N visible
12 Nov 5.4 19:20:10 10° SW 19:24:07 22° W 19:28:05 10° NW visible
13 Nov 6.1 05:43:48 10° NE 05:46:38 15° E 05:49:27 10° ESE visible
13 Nov 3.6 17:03:28 10° SE 17:08:03 35° ENE 17:12:38 10° N visible
13 Nov 4.2 18:42:12 10° SSW 18:47:01 42° W 18:51:51 10° NNW visible
14 Nov 4.4 06:44:41 10° NNE 06:49:34 44° E 06:54:25 10° S visible
14 Nov 3.1 18:05:01 10° SSE 18:10:06 82° WSW 18:15:14 10° NNW visible
14 Nov 6.0 19:47:19 10° WSW 19:49:58 14° W 19:52:37 10° NW visible
15 Nov 5.6 06:08:25 10° NE 06:12:29 23° E 06:16:31 10° SE visible
15 Nov 3.1 17:28:27 10° SE 17:33:23 54° ENE 17:38:21 10° N visible
15 Nov 5.1 19:08:26 10° SSW 19:12:43 27° W 19:17:02 10° NW visible
16 Nov 6.3 05:33:16 10° ENE 05:35:10 12° E 05:37:06 10° ESE visible
16 Nov 3.8 16:52:30 10° ESE 16:56:51 30° ENE 17:01:14 10° N visible
16 Nov 3.8 18:30:44 10° S 18:35:41 51° W 18:40:40 10° NNW visible
17 Nov 4.8 06:33:30 10° NNE 06:38:13 36° E 06:42:54 10° SSE visible
17 Nov 2.9 17:53:45 10° SSE 17:58:49 84° ENE 18:03:57 10° NNW visible
17 Nov 5.7 19:35:14 10° SW 19:38:32 17° W 19:41:51 10° NW visible
18 Nov 5.9 05:57:26 10° NE 06:01:04 19° E 06:04:41 10° SE visible
18 Nov 3.3 17:17:21 10° SE 17:22:10 45° ENE 17:27:00 10° N visible
18 Nov 4.7 18:56:48 10° SSW 19:01:20 32° W 19:05:56 10° NNW visible
19 Nov 3.8 06:58:49 10° NNE 07:03:51 58° E 07:08:52 10° S visible
19 Nov 3.5 18:19:20 10° S 18:24:22 63° W 18:29:26 10° NNW visible
19 Nov 6.2 20:03:37 10° W 20:04:27 10° W 20:05:17 10° WNW visible
20 Nov 5.1 06:22:22 10° NNE 06:26:51 30° E 06:31:19 10° SSE visible
20 Nov 2.9 17:42:31 10° SSE 17:47:34 70° ENE 17:52:38 10° N visible
20 Nov 5.5 19:23:19 10° SW 19:27:06 21° W 19:30:55 10° NW visible
21 Nov 6.0 05:46:32 10° NE 05:49:39 16° E 05:52:44 10° SE visible
21 Nov 3.5 17:06:19 10° SE 17:10:57 37° ENE 17:15:38 10° N visible
21 Nov 4.4 18:45:14 10° SSW 18:49:59 39° W 18:54:46 10° NNW visible
